Regional Weather Roundup
Issued by NWS Northern Indiana

Home | Current Version | Previous Version | Graphics & Text | Print | Product List | Glossary On
Versions: 1 2 3 4 5 6 7 8 9 10 11 12 13 14 15 16 17 18 19 20 21 22 23 24 25 26 27 28 29 30 31 32 33 34 35 36 37 38 39 40 41 42 43 44 45 46 47 48 49 50
000
ASUS43 KIWX 211010
RWRIWX

KIWX WEATHER ROUNDUP
NATIONAL WEATHER SERVICE NORTHERN INDIANA
600 AM EDT FRI JUL 21 2017

NOTE: "FAIR" INDICATES FEW OR NO CLOUDS BELOW 12,000 FEET WITH NO
SIGNIFICANT WEATHER AND/OR OBSTRUCTIONS TO VISIBILITY.

* THESE STATIONS ARE NOT UNDER NWS QUALITY CONTROL. THEY ALSO MAY NOT
  REPORT WEATHER SUCH AS PRECIPITATION OR FOG.

INZ001>027-211100-
NORTHERN INDIANA

CITY           SKY/WX    TMP DP  RH WIND       PRES   REMARKS
GARY*          MOCLDY    73  70  88 CALM      29.99R
VALPARAISO     CLOUDY    73  71  93 S3        30.00R
MICHIGAN CITY* CLOUDY    68  68 100 CALM      30.00S
LAPORTE*       CLOUDY    71  69  95 CALM      30.01S
KNOX*          CLOUDY    72  70  94 CALM      30.00R
SOUTH BEND     CLOUDY    69  68  96 S3        30.02R
GOSHEN         MOCLDY    68  65  90 CALM      30.01R
MONTICELLO*    LGT RAIN  70  68  95 W3        30.02F
LOGANSPORT*    LGT RAIN  70  68  94 W6        30.05F
ROCHESTER*     CLOUDY    73  70  88 CALM      30.02F
WARSAW*        CLOUDY    70  68  94 W6        30.03R
AUBURN*        CLOUDY    70  68  94 CALM      30.01R
FORT WAYNE     CLOUDY    73  70  90 N6        29.99R
HUNTINGTON*    CLOUDY    73  72  96 NW3       30.00R
PERU/GRISSOM   TSTM      72  72 100 N7        30.02F
MARION*        CLOUDY    72  68  88 NW36G49   30.03R FOG

$$
INZ028>050-211100-
CENTRAL INDIANA

CITY           SKY/WX    TMP DP  RH WIND       PRES   REMARKS
LAFAYETTE      RAIN      70  70 100 E5        30.00S
KOKOMO*        RAIN      71  70  96 NW10      30.05R
MUNCIE*        MOCLDY    79  75  87 W5        29.98R
INDIANAPOLIS   CLOUDY    78  74  87 NW22G29   30.01R THUNDER

$$
MIZ043>046-050>051-056>058-064>065-071>073-077>080-211100-
SOUTHWEST LOWER MICHIGAN

CITY           SKY/WX    TMP DP  RH WIND       PRES   REMARKS
BATTLE CREEK   CLOUDY    64  63  96 CALM      30.00S
BENTON HARBOR  CLOUDY    65  62  90 CALM      30.00R
COLDWATER*     FOG       67  67 100 CALM      29.99S VSB 1/4
HILLSDALE*     FOG       66  64  94 CALM      29.98F VSB 1/4
HOLLAND        CLOUDY    62  61  96 CALM      30.00S
GRAND RAPIDS   CLOUDY    63  63 100 S6        30.00R
KALAMAZOO      PTCLDY    66  62  87 N5        29.99F
STURGIS*       CLOUDY    65  65 100 CALM      30.00R FOG
THREE RIVERS*    N/A     64  64 100 NW3       30.01R FOG

$$
OHZ001>008-015>018-024>025-211100-
NORTHWEST OHIO

CITY           SKY/WX    TMP DP  RH WIND       PRES   REMARKS
WAUSEON*       FAIR      70  70 100 N5        29.97S FOG
DEFIANCE       MOCLDY   N/A N/A N/A N5        29.97S
FINDLAY        CLOUDY    74  70  87 CALM      29.96R FOG
TOLEDO EXPRESS CLOUDY    71  71 100 N3        29.95S
TOLEDO METCALF CLEAR     73  72  96 CALM      29.96S FOG
LIMA           CLOUDY    75  75 100 CALM      29.97R FOG

$$
AND FOR LAKE MICHIGAN COASTAL AND OPEN LAKE BUOY OBSERVATIONS

STATION/POSITION TEMP    WIND        PRES    VSBY  WAVE
                 AIR SEA DIR/SP/G                  HT/PER
                 (F)     (DEG/KT/KT) (MB)    (MI)  (FT/S)
CALUMET HARBOR    75      CALM  /  4 1014.9R
MICHIGAN CITY     73     130/  5/  6   N/A
BURNS HARBOR      76     140/  2/  6 1015.6F
SAINT JOSEPH      72     240/  5/  5 1016.9
SOUTH LAKE BUOY   71 70  310/  6/  8 1015.1F         0
4 MI NW BRIDGMAN  73 74  270/  4/  6 1015.5          0
MICHIGAN CITY     74 74  140/  4/  6   N/A           1

$$
&&




USA.gov is the U.S. government's official web portal to all federal, state and local government web resources and services.